Theta_e
311 311 312 312 312 313 313 313 313 313 312 312 312 311 311 310 311 311 312 315 315 315 316 318 317 316 317 318 319 318 312 313 314 317 317 316 315 317 317 316 316 317 317 317 317
311 312 312 312 313 313 313 313 313 314 314 313 313 313 312 312 312 313 313 312 315 315 314 316 317 317 317 318 319 315 308 311 312 315 315 316 315 316 316 315 315 317 317 317 317
312 312 313 313 313 313 314 314 314 314 314 314 314 314 314 313 313 313 316 315 313 315 314 314 317 317 317 318 318 315 313 312 316 319 317 316 314 316 315 311 315 317 318 317 317
313 313 313 313 313 314 314 314 314 314 314 315 315 315 314 313 310 314 315 313 313 315 315 314 316 316 315 315 318 317 317 316 317 319 317 314 316 314 315 317 317 317 317 317 316
313 313 313 312 312 313 313 313 313 314 314 314 314 314 314 312 314 315 314 313 313 314 316 314 315 316 315 314 315 315 316 318 318 318 318 316 314 313 316 318 318 317 316 316 316
307 307 308 308 308 309 309 309 309 309 309 310 311 312 312 310 314 314 314 314 314 315 315 314 314 315 316 315 314 315 315 314 315 316 315 315 315 314 317 317 316 316 316 316 316
309 310 311 311 312 312 313 313 313 312 311 308 307 308 309 312 314 315 315 314 314 314 313 313 313 315 315 314 315 315 312 310 311 315 312 314 313 311 316 316 316 315 315 316 316
312 313 313 314 314 314 313 313 313 314 314 312 309 307 308 310 311 313 313 313 313 313 312 311 311 313 314 314 313 311 310 311 311 310 313 314 313 312 315 314 316 317 318 317 318
314 317 319 320 320 320 320 319 317 313 311 312 309 308 309 312 310 311 312 313 313 313 312 311 311 313 313 309 309 307 308 307 309 311 312 310 311 311 315 314 315 317 318 318 317
321 322 322 322 322 322 321 320 318 313 311 310 309 310 312 313 312 313 314 313 313 312 311 311 312 309 308 307 309 308 308 307 308 310 310 310 310 311 314 313 313 315 317 317 318
323 323 322 322 322 322 321 320 313 312 310 313 313 312 311 312 314 314 314 313 312 311 308 311 308 309 310 308 310 307 307 307 308 309 310 310 311 311 313 313 312 312 313 315 316
323 323 323 323 323 322 321 316 309 309 309 316 316 311 312 312 314 314 313 312 311 310 308 309 309 308 308 308 309 309 309 309 310 309 307 308 310 310 309 311 313 314 313 313 314
322 322 322 322 322 321 320 314 308 307 308 312 313 310 310 308 309 311 312 311 310 309 308 309 310 310 308 309 309 309 309 310 310 309 308 307 311 309 308 310 312 313 313 313 313
324 323 323 322 322 321 318 318 307 307 306 308 308 309 310 310 310 311 311 311 309 309 307 308 309 309 309 310 309 310 308 309 310 310 312 309 311 309 310 308 308 310 312 314 315
324 324 323 323 321 321 320 319 309 310 317 312 308 310 311 309 309 310 310 311 309 310 309 308 311 309 309 310 309 310 309 309 308 307 309 309 309 312 309 308 309 310 312 314 316
320 322 324 324 322 321 319 321 311 312 318 311 308 310 309 310 310 309 310 310 309 309 307 308 309 309 308 308 307 309 310 308 305 306 311 310 309 314 308 309 309 309 312 315 316
321 321 321 322 320 319 318 319 317 320 314 312 309 309 308 308 309 307 308 309 309 309 310 307 308 308 308 310 309 310 310 310 309 310 314 307 309 313 309 309 307 308 313 315 315
321 320 320 320 320 319 318 318 321 317 313 311 311 309 312 309 310 308 307 307 305 307 306 308 313 308 307 309 309 308 309 311 310 311 313 306 310 312 308 309 311 310 311 312 313
317 319 319 319 318 319 319 319 319 319 316 318 317 318 316 310 310 309 306 307 307 305 311 308 309 307 307 308 309 308 310 310 310 304 306 308 309 310 312 308 307 309 310 311 312
309 309 311 315 317 318 317 319 316 316 315 313 319 316 315 310 309 308 308 307 308 305 306 309 310 307 306 306 306 308 307 310 308 312 313 310 310 312 312 310 308 308 308 310 311
306 306 309 311 312 315 316 315 316 315 316 316 317 317 316 316 312 315 314 311 308 309 306 307 309 311 307 307 310 306 307 307 308 311 314 315 314 311 312 312 307 306 310 313 310
304 307 307 310 313 312 313 312 314 314 315 316 314 316 316 315 315 315 316 316 309 309 311 308 310 313 313 310 306 306 307 309 312 312 310 313 314 312 312 311 310 310 309 311 313
304 306 307 312 312 311 311 311 313 313 313 313 314 314 314 314 315 314 314 313 313 312 312 310 313 316 315 310 309 310 312 309 311 311 313 314 314 312 311 311 311 308 310 310 311
302 303 307 309 310 311 310 311 311 311 312 313 313 312 313 313 312 312 312 310 306 308 309 311 314 315 315 314 310 309 308 310 312 314 313 312 312 311 310 311 311 311 311 310 311
299 302 303 306 307 308 308 308 309 309 309 310 311 311 311 312 311 310 305 305 305 304 303 303 307 309 309 306 306 308 309 310 312 312 312 312 311 310 310 310 310 309 307 305 304
296 299 298 299 300 304 307 306 307 307 308 309 309 302 301 304 303 303 297 299 299 300 298 299 301 304 302 302 304 307 306 308 309 309 311 312 313 310 303 302 299 300 298 297 298
294 295 296 298 297 299 301 303 303 300 302 302 298 298 298 298 295 295 295 295 296 296 295 296 295 293 298 299 299 301 302 304 306 308 307 309 302 299 295 296 294 297 296 296 296
Wind_Speed
6 7 7 8 8 9 9 9 9 9 10 11 11 11 11 11 12 14 17 12 9 9 8 5 5 5 6 4 4 3 3 3 5 3 5 2 3 3 5 7 8 10 17 11 9
8 8 9 9 9 9 10 10 10 10 11 11 12 13 15 15 18 20 15 15 11 9 9 7 7 7 4 4 5 4 3 7 6 4 4 4 5 8 4 8 9 16 22 23 20
9 10 10 10 11 11 11 12 11 11 11 12 13 14 15 16 19 3 4 4 8 11 9 8 7 8 4 5 7 6 6 5 7 13 10 6 5 7 6 8 20 20 24 25 25
11 11 12 13 13 14 14 14 14 13 13 13 13 14 16 14 6 2 8 15 12 11 13 11 9 4 4 5 7 3 14 12 7 9 7 5 7 5 16 34 26 24 19 19 24
13 14 14 14 15 16 16 17 17 17 16 16 15 14 16 9 19 21 18 15 13 12 15 15 13 6 4 3 3 5 6 16 21 20 22 18 20 12 25 44 36 31 29 29 29
12 13 13 14 15 16 16 17 17 17 18 18 17 17 16 10 14 12 11 13 12 12 14 16 6 12 6 5 5 4 10 16 14 18 15 8 18 4 39 35 30 26 30 33 36
11 11 12 13 15 16 16 17 18 17 16 16 16 17 19 29 23 24 23 18 15 14 14 14 17 7 1 4 5 8 8 9 8 17 10 8 15 11 49 35 36 37 33 31 32
11 10 11 13 15 16 16 19 20 19 19 17 16 15 14 19 21 22 22 22 17 14 13 13 11 14 10 6 5 4 2 5 1 7 5 12 17 17 29 21 30 31 30 27 30
9 8 9 12 14 16 16 18 19 19 19 17 15 12 11 16 17 18 17 17 13 14 13 11 7 7 4 5 4 3 5 7 12 15 4 8 10 10 18 12 25 31 32 32 33
7 7 9 12 14 16 16 17 15 14 12 9 12 5 16 11 9 10 11 13 9 9 7 8 7 2 2 4 7 8 5 6 7 3 5 6 14 14 33 16 28 34 38 40 44
8 8 10 14 16 18 17 14 6 5 5 8 4 9 12 12 9 9 9 12 8 7 5 5 4 9 20 14 13 3 5 8 9 8 5 9 15 16 29 29 28 31 37 48 54
12 13 11 14 16 15 15 7 7 7 12 19 26 31 35 22 6 12 10 10 7 5 5 3 7 16 3 3 8 9 13 15 16 19 5 15 22 16 13 18 39 39 38 40 50
15 15 14 15 16 11 10 10 9 11 6 14 19 14 15 12 13 17 13 7 5 6 9 11 9 9 6 5 12 5 8 16 15 9 6 10 17 11 11 27 38 46 46 44 45
19 17 16 16 13 10 6 11 10 11 3 7 3 2 4 6 3 5 16 7 3 9 5 6 5 10 4 8 9 14 11 12 12 3 7 4 11 7 7 11 12 29 37 44 45
19 21 20 17 13 12 8 10 10 5 6 2 1 1 3 4 4 1 14 6 4 4 3 8 2 3 6 13 9 10 6 6 4 5 5 6 4 3 5 7 15 20 31 38 36
13 11 19 20 9 4 7 10 5 3 8 2 2 0 1 0 0 3 3 5 3 2 3 9 2 4 9 6 10 0 2 3 4 3 7 10 8 30 5 7 5 11 27 33 38
11 7 9 10 8 11 4 8 1 6 3 1 2 3 3 5 3 6 5 4 4 3 3 1 5 4 6 3 2 3 5 4 3 1 10 6 8 28 8 6 8 11 23 34 38
17 17 17 16 14 10 6 1 8 0 4 3 1 1 4 5 5 3 3 4 6 3 1 3 12 7 5 8 8 8 10 6 7 9 16 4 7 15 11 10 16 15 21 26 32
10 12 17 18 15 14 8 6 4 3 4 2 7 8 5 3 5 4 8 7 8 13 10 6 12 2 4 3 6 3 6 7 3 4 1 6 13 13 26 11 5 8 16 21 28
12 13 20 17 15 18 7 21 9 12 6 4 11 8 9 5 3 3 6 2 4 9 2 5 10 5 2 2 3 6 2 3 2 3 10 8 8 14 23 17 6 9 13 23 24
14 8 10 8 17 14 10 8 10 21 14 6 10 18 12 8 10 13 8 3 3 2 8 5 6 14 4 7 13 2 4 6 3 6 15 17 10 17 28 29 7 8 23 36 20
8 3 9 17 10 7 12 10 6 6 15 11 4 9 8 13 19 21 22 15 7 6 7 7 3 7 20 16 5 6 11 13 10 11 8 16 19 15 27 21 19 23 26 25 41
5 8 10 21 8 11 9 10 11 17 15 5 9 8 11 17 14 16 20 18 18 8 5 4 4 6 4 9 4 8 15 14 21 20 25 23 21 19 19 26 28 17 26 29 32
3 3 9 19 22 8 14 19 18 17 15 17 14 15 13 14 12 5 10 4 11 7 14 9 9 18 20 19 5 6 8 13 21 14 22 22 28 24 27 28 27 30 23 18 24
7 3 3 3 11 13 12 11 15 11 9 11 5 14 10 10 5 2 3 5 4 6 4 3 4 8 11 11 11 13 18 19 24 23 22 24 28 22 21 23 24 22 24 20 22
3 2 5 6 10 4 11 17 21 18 6 12 10 3 4 1 2 3 6 2 4 5 7 3 7 12 22 22 21 18 20 25 24 28 27 33 33 19 19 25 29 19 19 20 24
6 14 5 6 3 2 5 6 4 4 2 1 7 3 4 1 5 12 16 18 16 15 20 5 4 3 22 26 21 18 23 19 20 22 18 16 9 13 18 18 25 14 19 20 23
Wind_Direction
328 333 337 341 342 344 346 346 345 346 346 344 339 335 330 320 306 291 281 277 261 235 236 229 209 207 200 204 192 174 70 246 252 197 259 260 235 232 251 247 223 220 241 249 265
314 318 319 321 323 325 327 327 326 327 329 330 328 326 324 322 313 302 294 262 241 235 239 230 212 196 202 202 198 153 145 227 218 227 249 273 242 269 262 244 244 244 246 249 252
300 302 304 307 309 310 311 311 311 313 315 316 317 317 318 321 318 316 31 45 243 243 238 227 217 206 221 203 203 183 214 218 260 250 272 271 260 247 236 258 241 248 271 254 247
290 292 297 299 300 299 298 296 297 298 299 301 303 307 308 312 301 324 304 306 298 246 235 226 212 206 218 216 214 214 248 236 263 268 273 253 272 245 240 263 272 280 271 262 252
284 288 291 291 292 292 292 292 292 291 291 291 293 295 298 283 268 288 285 283 276 253 238 227 219 213 207 222 265 226 259 265 271 275 273 277 263 251 264 279 279 272 269 264 261
284 287 290 291 290 290 291 292 290 288 288 285 283 283 284 255 278 280 278 277 265 248 241 227 219 235 271 233 197 292 283 283 287 279 271 249 280 239 274 284 282 274 269 266 264
285 287 290 292 293 295 295 292 289 287 285 282 278 272 267 262 274 274 273 269 261 252 241 238 231 223 226 294 295 287 312 307 221 252 230 209 285 234 272 278 281 280 275 273 267
287 293 299 303 304 304 306 300 293 285 278 275 273 267 257 272 264 256 257 260 255 248 243 241 230 235 243 263 311 349 314 319 301 126 248 161 267 264 275 274 278 281 284 277 275
295 303 309 311 312 310 313 307 305 296 282 271 264 241 263 261 259 263 254 249 241 240 235 232 212 214 220 98 351 346 249 229 304 201 159 185 248 277 272 287 276 282 282 280 277
297 307 314 315 317 317 321 318 308 299 282 267 238 239 245 253 257 257 242 228 224 214 200 192 182 155 53 116 229 229 224 253 245 268 180 230 249 279 284 280 269 274 278 276 274
292 307 319 320 323 326 328 337 319 295 286 230 224 240 280 245 261 254 228 198 182 183 176 182 137 205 221 199 221 207 220 238 253 261 213 237 253 251 270 283 275 273 268 273 276
287 297 308 315 325 331 340 10 355 311 299 272 261 254 257 253 246 232 207 179 180 206 121 61 225 232 66 164 225 239 255 264 272 268 222 269 264 259 234 250 263 269 268 267 274
285 292 303 311 322 329 345 356 343 334 271 278 255 256 260 253 234 247 209 191 176 182 205 210 232 231 205 223 243 215 230 257 263 308 240 285 278 235 252 247 257 263 263 270 270
283 287 295 307 315 331 328 345 344 342 323 272 250 249 208 188 178 213 193 203 215 226 209 234 263 221 154 223 229 265 225 253 267 328 269 16 298 315 227 236 243 257 263 269 275
274 274 274 279 291 306 316 347 342 355 300 261 164 242 182 181 132 91 187 187 212 201 162 250 224 162 200 229 164 244 180 229 200 199 315 185 246 253 194 242 245 256 264 271 281
267 264 262 263 270 244 324 319 324 46 249 313 115 269 120 228 109 125 162 189 188 230 215 245 276 202 218 220 189 125 96 76 60 117 273 204 169 284 174 209 242 255 263 275 290
241 231 250 239 252 264 318 309 241 221 358 256 161 189 213 197 225 182 161 161 195 300 273 40 219 255 201 246 166 142 74 305 322 116 234 139 173 259 304 260 216 244 262 280 289
239 252 252 249 223 255 206 210 237 61 277 299 317 77 235 166 244 185 131 234 235 206 190 215 283 191 174 198 200 186 170 181 221 262 273 97 241 269 233 245 264 275 283 292 307
258 246 243 240 255 222 209 224 233 182 225 271 310 300 273 270 211 164 210 223 219 184 216 197 262 172 194 162 160 164 189 234 297 335 295 248 271 297 279 269 240 281 331 332 335
277 272 259 257 243 232 225 235 231 209 205 205 232 221 230 204 185 189 191 198 249 192 309 305 282 176 184 146 211 193 324 323 357 249 250 232 257 261 278 273 319 318 312 315 327
269 270 261 227 213 212 230 241 245 232 216 218 260 256 248 260 230 246 248 244 232 254 177 206 219 265 123 194 239 155 239 209 208 214 253 256 247 248 266 283 243 269 300 304 302
240 245 235 206 199 218 240 232 224 225 231 234 269 259 262 273 270 259 252 229 135 135 259 215 249 253 261 270 207 191 224 222 233 249 231 255 252 252 267 275 284 280 287 286 298
229 246 228 199 228 230 250 265 256 256 243 227 239 225 255 262 273 256 265 272 292 258 235 169 243 255 226 292 236 212 241 236 248 256 253 257 262 259 270 278 281 285 297 295 298
227 268 216 221 233 250 242 247 249 255 254 249 258 259 264 264 255 268 265 263 334 3 333 349 243 254 259 259 271 261 222 230 230 242 254 255 268 267 268 274 282 285 295 318 315
215 255 263 242 242 250 250 268 267 272 244 263 236 245 265 264 264 210 357 334 282 65 44 51 288 319 314 321 314 317 309 305 290 278 267 275 277 274 281 285 294 346 358 357 4
238 285 318 302 307 293 233 243 257 267 252 260 254 67 56 244 33 326 4 53 289 345 349 328 269 296 288 283 281 280 286 274 273 275 275 274 273 299 356 343 354 7 31 13 1
241 256 311 257 286 259 255 258 290 34 217 260 75 25 291 44 326 284 272 258 250 267 282 243 246 267 277 282 289 273 260 269 273 267 296 292 357 7 355 359 340 9 7 8 359